EN

Hourly Weather Laczno

Today, 5 August, Thursday

Time Temperature Precipitation Wind Pressure Humidity
00:00 +13°C° 0 mm 1 mps 748 mmHg 83%
01:00 +13°C° 0 mm 1 mps 747 mmHg 85%
02:00 +13°C° 0 mm 1 mps 747 mmHg 85%
03:00 +13°C° 0 mm 1 mps 747 mmHg 86%
04:00 +12°C° 0 mm 1 mps 747 mmHg 87%
05:00 +14°C° 0 mm 1 mps 747 mmHg 81%
06:00 +15°C° 0 mm 2 mps 747 mmHg 76%
07:00 +17°C° 0 mm 2 mps 747 mmHg 70%
08:00 +18°C° 0 mm 2 mps 747 mmHg 64%
09:00 +20°C° 0 mm 2 mps 747 mmHg 57%
10:00 +21°C° 0 mm 3 mps 747 mmHg 51%
11:00 +22°C° 0 mm 3 mps 746 mmHg 49%
12:00 +22°C° 0 mm 3 mps 746 mmHg 46%
13:00 +23°C° 0 mm 4 mps 746 mmHg 44%
14:00 +23°C° 0 mm 4 mps 745 mmHg 45%
15:00 +22°C° 0 mm 4 mps 745 mmHg 46%
16:00 +22°C° 0 mm 4 mps 745 mmHg 48%
17:00 +21°C° 0 mm 4 mps 745 mmHg 53%
18:00 +20°C° 0 mm 4 mps 744 mmHg 58%
19:00 +19°C° 0 mm 4 mps 744 mmHg 63%
20:00 +18°C° 0 mm 4 mps 744 mmHg 66%
21:00 +17°C° 0 mm 4 mps 744 mmHg 70%
22:00 +17°C° 0 mm 4 mps 743 mmHg 73%
23:00 +15°C° 0 mm 4 mps 743 mmHg 74%

Tomorrow, 6 August, Friday

Time Temperature Precipitation Wind Pressure Humidity
00:00 +15°C° 0 mm 4 mps 743 mmHg 75%
01:00 +15°C° 0 mm 4 mps 742 mmHg 76%
02:00 +14°C° 0 mm 4 mps 742 mmHg 75%
03:00 +14°C° 0 mm 5 mps 742 mmHg 73%
04:00 +13°C° 0 mm 5 mps 742 mmHg 71%
05:00 +13°C° 0.4 mm 5 mps 741 mmHg 74%
06:00 +13°C° 0.4 mm 5 mps 741 mmHg 77%
07:00 +12°C° 0.4 mm 5 mps 741 mmHg 80%
08:00 +12°C° 1.7 mm 5 mps 741 mmHg 84%
09:00 +11°C° 1.7 mm 6 mps 740 mmHg 89%
10:00 +10°C° 1.7 mm 6 mps 740 mmHg 94%
11:00 +11°C° 1.4 mm 6 mps 740 mmHg 94%
12:00 +12°C° 1.4 mm 5 mps 740 mmHg 95%
13:00 +13°C° 1.4 mm 5 mps 739 mmHg 95%
14:00 +13°C° 1.5 mm 5 mps 739 mmHg 95%
15:00 +13°C° 1.5 mm 5 mps 739 mmHg 95%
16:00 +13°C° 1.5 mm 5 mps 739 mmHg 95%
17:00 +13°C° 0.6 mm 4 mps 739 mmHg 95%
18:00 +13°C° 0.6 mm 4 mps 739 mmHg 95%
19:00 +13°C° 0.6 mm 4 mps 739 mmHg 95%
20:00 +13°C° 0.7 mm 4 mps 739 mmHg 96%
21:00 +14°C° 0.7 mm 4 mps 739 mmHg 96%
22:00 +14°C° 0.7 mm 4 mps 739 mmHg 97%
23:00 +14°C° 0.7 mm 4 mps 739 mmHg 97%

Day after tomorrow, 7 August, Saturday

Time Temperature Precipitation Wind Pressure Humidity
00:00 +14°C° 0.7 mm 5 mps 739 mmHg 97%
01:00 +14°C° 0.7 mm 5 mps 739 mmHg 97%
02:00 +14°C° 0.3 mm 5 mps 739 mmHg 96%
03:00 +14°C° 0.3 mm 6 mps 739 mmHg 96%
04:00 +14°C° 0.3 mm 6 mps 739 mmHg 96%
05:00 +14°C° 0.1 mm 6 mps 740 mmHg 94%
06:00 +15°C° 0.1 mm 6 mps 740 mmHg 92%
07:00 +15°C° 0.1 mm 5 mps 740 mmHg 91%
08:00 +17°C° 0 mm 5 mps 741 mmHg 82%
09:00 +19°C° 0 mm 6 mps 741 mmHg 73%
10:00 +20°C° 0 mm 6 mps 741 mmHg 65%
11:00 +21°C° 0 mm 5 mps 742 mmHg 60%
12:00 +22°C° 0 mm 5 mps 742 mmHg 55%
13:00 +23°C° 0 mm 5 mps 742 mmHg 50%
14:00 +23°C° 0 mm 4 mps 742 mmHg 51%
15:00 +24°C° 0 mm 3 mps 742 mmHg 52%
16:00 +24°C° 0 mm 3 mps 742 mmHg 53%
17:00 +21°C° 0 mm 3 mps 742 mmHg 61%
18:00 +20°C° 0 mm 2 mps 743 mmHg 70%
19:00 +18°C° 0 mm 2 mps 743 mmHg 78%
20:00 +18°C° 0 mm 2 mps 743 mmHg 78%
21:00 +18°C° 0 mm 2 mps 743 mmHg 78%
22:00 +18°C° 0 mm 2 mps 743 mmHg 77%
23:00 +17°C° 0 mm 2 mps 743 mmHg 79%

8 August, Sunday

Time Temperature Precipitation Wind Pressure Humidity
00:00 +16°C° 0 mm 2 mps 743 mmHg 81%
01:00 +16°C° 0 mm 2 mps 743 mmHg 82%
02:00 +16°C° 0 mm 3 mps 743 mmHg 82%
03:00 +16°C° 0 mm 3 mps 743 mmHg 82%
04:00 +14°C° 0 mm 3 mps 743 mmHg 82%
05:00 +17°C° 0 mm 4 mps 742 mmHg 78%
06:00 +17°C° 0 mm 5 mps 742 mmHg 74%
07:00 +19°C° 0 mm 5 mps 741 mmHg 71%
08:00 +20°C° 0 mm 5 mps 741 mmHg 69%
09:00 +21°C° 0 mm 5 mps 741 mmHg 67%
10:00 +22°C° 0 mm 5 mps 741 mmHg 65%
11:00 +22°C° 0 mm 6 mps 741 mmHg 64%
12:00 +23°C° 0 mm 6 mps 741 mmHg 64%
13:00 +23°C° 0 mm 7 mps 742 mmHg 63%
14:00 +23°C° 0 mm 7 mps 743 mmHg 64%
15:00 +22°C° 0 mm 6 mps 743 mmHg 64%
16:00 +22°C° 0 mm 6 mps 744 mmHg 64%
17:00 +21°C° 0 mm 5 mps 745 mmHg 67%
18:00 +21°C° 0 mm 4 mps 745 mmHg 69%
19:00 +20°C° 0 mm 2 mps 746 mmHg 71%
20:00 +19°C° 0 mm 2 mps 746 mmHg 73%
21:00 +18°C° 0 mm 2 mps 747 mmHg 76%
22:00 +17°C° 0 mm 2 mps 747 mmHg 78%
23:00 +17°C° 0 mm 2 mps 747 mmHg 77%

9 August, Monday

Time Temperature Precipitation Wind Pressure Humidity
00:00 +16°C° 0 mm 3 mps 748 mmHg 76%
01:00 +16°C° 0 mm 3 mps 748 mmHg 76%
02:00 +16°C° 0 mm 3 mps 748 mmHg 77%
03:00 +14°C° 0 mm 3 mps 748 mmHg 79%
04:00 +14°C° 0 mm 3 mps 749 mmHg 81%
05:00 +16°C° 0 mm 3 mps 749 mmHg 78%
06:00 +17°C° 0 mm 3 mps 749 mmHg 75%
07:00 +18°C° 0 mm 3 mps 749 mmHg 72%
08:00 +19°C° 0 mm 4 mps 750 mmHg 66%
09:00 +21°C° 0 mm 4 mps 750 mmHg 60%
10:00 +22°C° 0 mm 5 mps 750 mmHg 54%
11:00 +23°C° 0 mm 5 mps 750 mmHg 51%
12:00 +25°C° 0 mm 4 mps 750 mmHg 48%
13:00 +25°C° 0 mm 4 mps 750 mmHg 45%
14:00 +25°C° 0 mm 4 mps 750 mmHg 49%
15:00 +24°C° 0 mm 3 mps 750 mmHg 54%
16:00 +23°C° 0 mm 2 mps 750 mmHg 59%
17:00 +21°C° 0 mm 2 mps 750 mmHg 61%
18:00 +20°C° 0 mm 2 mps 750 mmHg 62%
19:00 +19°C° 0 mm 2 mps 750 mmHg 64%
20:00 +19°C° 0.1 mm 2 mps 750 mmHg 65%
21:00 +18°C° 0.1 mm 2 mps 751 mmHg 67%
22:00 +18°C° 0.1 mm 2 mps 751 mmHg 68%
23:00 +17°C° 0 mm 2 mps 751 mmHg 70%

10 August, Tuesday

Time Temperature Precipitation Wind Pressure Humidity
00:00 +16°C° 0 mm 2 mps 750 mmHg 73%
01:00 +16°C° 0 mm 1 mps 750 mmHg 75%
02:00 +16°C° 0 mm 2 mps 750 mmHg 75%
03:00 +15°C° 0 mm 2 mps 750 mmHg 76%
04:00 +15°C° 0 mm 2 mps 750 mmHg 76%
05:00 +16°C° 0 mm 2 mps 750 mmHg 74%
06:00 +17°C° 0 mm 2 mps 750 mmHg 72%
07:00 +18°C° 0 mm 2 mps 751 mmHg 70%
08:00 +19°C° 0 mm 2 mps 750 mmHg 64%
09:00 +21°C° 0 mm 3 mps 750 mmHg 58%
10:00 +22°C° 0 mm 3 mps 750 mmHg 52%
11:00 +24°C° 0 mm 3 mps 750 mmHg 49%
12:00 +25°C° 0 mm 3 mps 750 mmHg 46%
13:00 +25°C° 0 mm 3 mps 750 mmHg 43%
14:00 +24°C° 0 mm 3 mps 750 mmHg 49%
15:00 +23°C° 0 mm 2 mps 749 mmHg 55%
16:00 +21°C° 0 mm 2 mps 749 mmHg 61%
17:00 +20°C° 0 mm 2 mps 749 mmHg 63%
18:00 +20°C° 0 mm 2 mps 749 mmHg 65%
19:00 +19°C° 0 mm 2 mps 749 mmHg 66%
20:00 +18°C° 0.4 mm 2 mps 749 mmHg 73%
21:00 +18°C° 0.4 mm 1 mps 749 mmHg 80%
22:00 +15°C° 0.4 mm 1 mps 749 mmHg 86%
23:00 +15°C° 0 mm 2 mps 749 mmHg 87%
Show more